Weather History for Frederick, OK

Change the Weather History Date:

Tuesday, November 27, 2012

  Actual Average (KLTS) Record (KLTS)
Temperature  
Mean Temperature 42 °F -  
Max Temperature 53 °F 55 °F 71 °F (2006)
Min Temperature 30 °F 34 °F 17 °F (2002)
Degree Days  
Heating Degree Days 24    
Moisture  
Dew Point 23 °F    
Average Humidity 55    
Maximum Humidity 75    
Minimum Humidity 32    
Precipitation  
Precipitation 0.00 in - - ()
Sea Level Pressure  
Sea Level Pressure 30.36 in    
Wind  
Wind Speed 9 mph (East)    
Max Wind Speed 14 mph    
Max Gust Speed -    
Visibility 10 miles    
Events      
Averages and records for this station are not official NWS values.
T = Trace of Precipitation, MM = Missing Value Source: NWS Daily Summary

Daily Weather History Graph

Daily Weather History Graph

Search for Another Location

Airport:

Trip Planner

Search our weather history database for the weather conditions in past years. The results will help you decide how hot, cold, wet, or windy it might be!

Date:

Astronomy

Nov. 27, 2012 Rise Set
Actual Time 7:20 AM CST 5:26 PM CST
Civil Twilight 6:53 AM CST 5:53 PM CST
Nautical Twilight 6:22 AM CST 6:24 PM CST
Astronomical Twilight 5:52 AM CST 6:54 PM CST
Moon 4:58 PM CST (11/27) 6:28 AM CST (11/27)
Length of Visible Light 11h 00m
Length of Day
10h 05m
Waxing Gibbous, 99% of the Moon is Illuminated
Nov 27
Waxing Gibbous
Nov 28
Full
Dec 6
Last Quarter
Dec 13
New
Dec 19
First Quarter

Hourly Weather History & Observations

Time (CST) Temp. Windchill Dew Point Humidity Pressure Visibility Wind Dir Wind Speed Gust Speed Precip Events Conditions
12:53 AM 36.0 °F 29.0 °F 21.9 °F 57% 30.37 in 10.0 mi North 9.2 mph - N/A   Clear
1:53 AM 33.1 °F 24.9 °F 21.0 °F 61% 30.38 in 10.0 mi North 10.4 mph - N/A   Clear
2:53 AM 33.1 °F 24.4 °F 23.0 °F 66% 30.38 in 10.0 mi North 11.5 mph - N/A   Clear
3:53 AM 33.1 °F 24.4 °F 23.0 °F 66% 30.40 in 10.0 mi North 11.5 mph - N/A   Clear
4:53 AM 32.0 °F 22.5 °F 23.0 °F 69% 30.40 in 10.0 mi NNW 12.7 mph - N/A   Clear
5:53 AM 30.9 °F 21.7 °F 23.0 °F 72% 30.41 in 10.0 mi North 11.5 mph - N/A   Clear
6:53 AM 30.0 °F 20.5 °F 23.0 °F 75% 30.42 in 10.0 mi NNW 11.5 mph - N/A   Clear
7:53 AM 30.0 °F 20.5 °F 23.0 °F 75% 30.44 in 10.0 mi North 11.5 mph - N/A   Clear
8:53 AM 34.0 °F 24.6 °F 25.0 °F 70% 30.45 in 10.0 mi North 13.8 mph - N/A   Clear
9:53 AM 39.0 °F 31.8 °F 26.1 °F 60% 30.47 in 10.0 mi North 11.5 mph - N/A   Clear
10:53 AM 44.1 °F 41.5 °F 27.0 °F 51% 30.45 in 10.0 mi NE 4.6 mph - N/A   Clear
11:53 AM 46.0 °F 44.8 °F 26.1 °F 46% 30.43 in 10.0 mi Variable 3.5 mph - N/A   Clear
12:53 PM 48.9 °F - 24.1 °F 38% 30.38 in 10.0 mi Calm Calm - N/A   Clear
1:53 PM 51.1 °F - 24.1 °F 35% 30.35 in 10.0 mi South 6.9 mph - N/A   Clear
2:53 PM 53.1 °F - 24.1 °F 32% 30.31 in 10.0 mi South 8.1 mph - N/A   Clear
3:53 PM 52.0 °F - 24.1 °F 34% 30.30 in 10.0 mi SSE 4.6 mph - N/A   Clear
4:53 PM 51.1 °F - 23.0 °F 33% 30.28 in 10.0 mi South 8.1 mph - N/A   Clear
5:53 PM 45.0 °F 41.8 °F 21.0 °F 39% 30.28 in 10.0 mi SSE 5.8 mph - N/A   Clear
6:53 PM 42.1 °F 37.7 °F 21.9 °F 45% 30.29 in 10.0 mi SSE 6.9 mph - N/A   Clear
7:53 PM 37.9 °F 34.4 °F 21.0 °F 51% 30.30 in 10.0 mi SSW 4.6 mph - N/A   Clear
8:53 PM 37.0 °F 31.0 °F 21.0 °F 52% 30.30 in 10.0 mi South 8.1 mph - N/A   Clear
9:53 PM 36.0 °F 29.0 °F 23.0 °F 59% 30.29 in 10.0 mi SE 9.2 mph - N/A   Clear
10:53 PM 36.0 °F 29.6 °F 23.0 °F 59% 30.29 in 10.0 mi SSE 8.1 mph - N/A   Clear
11:53 PM 35.1 °F 28.6 °F 24.1 °F 64% 30.29 in 10.0 mi South 8.1 mph - N/A   Clear